Regional Weather Roundup
Issued by NWS

Home | Current Version | Previous Version | Graphics & Text | Print | Product List | Glossary On
Versions: 1 2 3 4 5 6 7 8 9 10 11 12 13 14 15 16 17 18 19 20 21 22 23 24 25 26 27 28 29 30 31 32 33 34 35 36 37 38 39 40 41 42 43 44 45 46 47 48 49 50
000
ASUS43 KMKX 271321
RWRWI

WISCONSIN REGIONAL WEATHER ROUNDUP
NATIONAL WEATHER SERVICE MILWAUKEE/SULLIVAN WI
800 AM CDT THU AUG 27 2015

NOTE: "FAIR" INDICATES FEW OR NO CLOUDS BELOW 12,000 FEET WITH NO
SIGNIFICANT WEATHER AND/OR OBSTRUCTIONS TO VISIBILITY.

WIZ001-002-006>008-014>016-023>028-271400-
NORTHWEST WISCONSIN

CITY           SKY/WX    TMP DP  RH WIND       PRES   REMARKS
SUPERIOR ARPT  MOSUNNY   50  50 100 CALM      30.13R
ASHLAND        SUNNY     49  47  93 CALM      30.15S
HAYWARD        SUNNY     49  47  93 CALM      30.15R
SIREN          SUNNY     55  53  92 SE3       30.13S
CUMBERLAND     SUNNY     50  50 100 CALM      30.15R
RICE LAKE      SUNNY     51  49  96 CALM      30.17R
CHETEK         MOSUNNY   51  50  99 CALM      30.17R
LADYSMITH      SUNNY     50  48  92 CALM      30.17R
EAU CLAIRE     SUNNY     53  52  96 S3        30.15R
MENOMONIE      SUNNY     55  54  99 E5        30.14F
NEW RICHMOND   SUNNY     56  54  92 SE3       30.13F
OSCEOLA        PTSUNNY   58  58 100 E3        30.14F
$$

WIZ003>005-009-010-017-018-271400-
NORTH CENTRAL WISCONSIN

CITY           SKY/WX    TMP DP  RH WIND       PRES   REMARKS
MANITOWISH WTR MOSUNNY   43  43 100 CALM      30.18S
ARBOR VITAE    SUNNY     48  46  95 CALM      30.17F
WOODRUFF       SUNNY     48  46  95 CALM      30.17F
RHINELANDER    MOSUNNY   47  45  93 CALM      30.19S
EAGLE RIVER    FOG       44  44 100 CALM      30.18S VSB<1/4
LAND O LAKES   FOG       43  43 100 CALM      30.19F VSB 1/4
PHILLIPS       SUNNY     45  45  99 NE3       30.14F
TOMAHAWK       SUNNY     46  45  97 CALM      30.18S
MEDFORD        SUNNY     51  51  98 CALM      30.17R
MERRILL        SUNNY     45  45 100 CALM      30.18F FOG
$$

WIZ029-030-035-036-043>047-271400-
CENTRAL WISCONSIN

CITY           SKY/WX    TMP DP  RH WIND       PRES   REMARKS
WAUSAU         SUNNY     50  49  96 E5        30.16F
MOSINEE        SUNNY     52  52 100 E3        30.18F
MARSHFIELD     SUNNY     55  50  83 CALM      30.16F
STEVENS POINT  SUNNY     49  48  97 CALM      30.17F
WAUPACA        SUNNY     55  53  96 CALM      30.18F
WAUTOMA        SUNNY     52  52 100 CALM      30.19F
WISC RAPIDS    SUNNY     53  51  93 CALM      30.18F
CAMP DOUGLAS   SUNNY     54  54 100 SE2       30.17R
$$

WIZ011>013-019>022-031-037>040-048>050-271400-
NORTHEAST WISCONSIN

CITY           SKY/WX    TMP DP  RH WIND       PRES   REMARKS
ANTIGO         SUNNY     51  50  97 CALM      30.19S
SHAWANO        FOG       54  53  95 CALM      30.19F VSB 1/4
OCONTO         CLOUDY    50  50 100 NW3       30.19S VSB 1/4
STURGEON BAY   MOSUNNY   54  52  94 W3        30.21S
GREEN BAY      FOG       53  53 100 CALM      30.20R VSB<1/4
MANITOWOC      SUNNY     54  53  97 MISG      30.21R
APPLETON       MOSUNNY   55  55 100 CALM      30.16F
CLINTONVILLE   FOG       52  52 100 CALM      30.19S VSB<1/4
OSHKOSH        SUNNY     59  54  83 W5        30.18F
$$

WIZ032>034-041-042-053>061-271400-
SOUTHWEST WISCONSIN

CITY           SKY/WX    TMP DP  RH WIND       PRES   REMARKS
LA CROSSE      FOG       55  54  96 E5        30.16R VSB 3/4
SPARTA         SUNNY     49  48  96 CALM      30.18R
VIROQUA        SUNNY     55  55 100 S6        30.18R
BOSCOBEL       FOG       53  52  96 CALM      30.19R VSB 1/4
PRAIRIE DU CHI CLOUDY    56  54  92 E3        30.17S
PLATTEVILLE    SUNNY     57  56  94 S6        30.18S
$$

WIZ056-057-062-063-064-067-068-271400-
SOUTH CENTRAL WISCONSIN

CITY           SKY/WX    TMP DP  RH WIND       PRES   REMARKS
REEDSBURG      SUNNY     52  51  97 CALM      30.17S
BARABOO/DELLS  SUNNY     56  54  91 S3        30.17S
LONE ROCK      SUNNY     55  52  89 CALM      30.19R
MINERAL POINT  SUNNY     57  54  88 SE5       30.19S
MADISON        MOSUNNY   57  53  86 CALM      30.18F
MIDDLETON      SUNNY     60  54  80 CALM      30.19S
WATERTOWN      SUNNY     53  53 100 CALM      30.20F FOG
MONROE         SUNNY     55  52  88 SW7       30.19S
JANESVILLE     SUNNY     55  54  94 CALM      30.19F FOG
$$

WIZ051-052-058>065-066-070>072-271400-
SOUTHEAST WISCONSIN

CITY           SKY/WX    TMP DP  RH WIND       PRES   REMARKS
MILWAUKEE      PTSUNNY   60  52  74 W6        30.23R
WAUKESHA       MOSUNNY   55  54  94 SW3       30.22S
MILWAUKEE/TIMM PTSUNNY   57  52  82 CALM      30.23R
RACINE         CLOUDY    56  52  86 W6        30.24R
BURLINGTON     SUNNY     53  52  99 CALM      30.21F
KENOSHA        SUNNY     56  54  93 W3        30.23R
FOND DU LAC    SUNNY     56  54  93 S6        30.20F
SHEBOYGAN      MOSUNNY   60  56  86 W7        30.20R
WEST BEND      MOSUNNY   59  52  77 SW5       30.21S
JUNEAU         SUNNY     51  51  98 E5        30.21F FOG
$$

LSZ147-162-271400-
LAKE SUPERIOR

STATION/POSITION TIME  TEMP    WIND        PRES    WAVE
                       AIR SEA DIR/SP/G            HT/PER
                 (UTC) (F)     (DEG/KT/KT) (MB)    (FT/S)
W MID LAKE BUOY  1250   54 54  210/  4/  4 1021.2R   0
DEVILS ISLAND    1300   54     210/  6/  6 1020.7F
PORT WING        1240   50     120/  3/  4 1020.3F
SAXON HARBOR     1240   48        CALM     1020.7S
$$

LMZ867-665-643>646-271400-
LAKE MICHIGAN

STATION/POSITION TIME  TEMP    WIND        PRES    WAVE
                       AIR SEA DIR/SP/G            HT/PER
                 (UTC) (F)     (DEG/KT/KT) (MB)    (FT/S)
CHAMBERS ISLAND  1200   53        CALM     1022.0R
S GREEN BAY BUOY 1200   54     340/  8/ 10 1023.3R
N MID LAKE BUOY  1250   59 64  110/  2/  4 1022.4R   1
NORTHPORT PIER   1304   59      CALM  /  6 1022.4R
SISTER BAY       1219   60        CALM       N/A
ALGOMA LAKESHORE 1214             CALM       N/A
KEWAUNEE LAKESHO 1200   49     300/  2/  3 1021.2R
SHEBOYGAN LAKESH 1300   49     170/  8/  8 1023.3R
PORT WASHINGTON  1200   52     200/  2/  3 1023.4R
ATWATER BUOY     1300   59 48  200/  4/  4 1024.7R
MILWAUKEE LAKESH 1300   61     250/  4/  7   N/A
S MID LAKE BUOY  1250   64 66  290/  6/  8 1023.4R   0
KENOSHA   LAKESH 1300   58     270/  2/  6 1023.4R
$$

TC  - TEMPERATURE IN CELSIUS
VSB - VISIBILITY IN STATUTE MILES
WCI - WIND CHILL INDEX
HX  - HEAT INDEX



USA.gov is the U.S. government's official web portal to all federal, state and local government web resources and services.